, AK

(GMT )
McGrath

Weather History for PAMC - April, 2014

Change the Weather History Date:

Monday, April 28, 2014

  Actual Average Record
Temperature  
Mean Temperature 45 °F 38 °F  
Max Temperature 62 °F 49 °F 67 °F (1958)
Min Temperature 28 °F 28 °F -2 °F (1949)
Degree Days  
Heating Degree Days 20 27  
Month to date heating degree days 939 1009  
Since 1 July heating degree days 11343 12903  
Cooling Degree Days 0    
Month to date cooling degree days 0  
Year to date cooling degree days 0  
Moisture  
Dew Point 26 °F    
Average Humidity 48    
Maximum Humidity 79    
Minimum Humidity 17    
Precipitation  
Precipitation 0.00 in 0.03 in 0.16 in (2002)
Month to date precipitation 0.07 0.69  
Year to date precipitation 1.80 3.53  
Snow  
Snow 0.00 in 0.10 in 0.90 in (1962)
Month to date snowfall 0.7 4.9  
Since 1 July snowfall 47.1 96.2  
Snow Depth 0.00 in    
Sea Level Pressure  
Sea Level Pressure 29.72 in    
Wind  
Wind Speed 6 mph (SSW)    
Max Wind Speed 17 mph    
Max Gust Speed 28 mph    
Visibility 10 miles    
Events      
T = Trace of Precipitation, MM = Missing Value Source: NWS Daily Summary

Daily Weather History Graph

Daily Weather History Graph

Search for Another Location

Airport or City:

Trip Planner

Search our weather history database for the weather conditions in past years. The results will help you decide how hot, cold, wet, or windy it might be!

Date:

Astronomy

Apr. 28, 2014 Rise Set
Actual Time 6:11 AM AKDT 10:29 PM AKDT
Civil Twilight 5:11 AM AKDT 11:31 PM AKDT
Nautical Twilight 3:18 AM AKDT 1:32 AM AKDT
Astronomical Twilight Sun does not set Sun does not set
Moon 6:16 AM AKDT (4/28) 10:12 PM AKDT (4/28)
Length of Visible Light 18h 20m
Length of Day
16h 18m
Waning Crescent, 0% of the Moon is Illuminated
Apr 28
Waning Crescent
Apr 28
New
May 6
First Quarter
May 14
Full
May 21
Last Quarter

Hourly Weather History & Observations

Time (AKDT) Temp. Windchill Dew Point Humidity Pressure Visibility Wind Dir Wind Speed Gust Speed Precip Events Conditions
12:53 AM 36.0 °F - 24.1 °F 62% 29.51 in 10.0 mi Calm Calm - N/A   Clear
1:53 AM 35.1 °F 31.0 °F 23.0 °F 61% 29.53 in 10.0 mi NW 4.6 mph - N/A   Clear
2:53 AM 33.1 °F 30.0 °F 24.1 °F 70% 29.56 in 10.0 mi WNW 3.5 mph - N/A   Partly Cloudy
3:53 AM 30.0 °F - 24.1 °F 79% 29.59 in 10.0 mi Calm Calm - N/A   Partly Cloudy
4:53 AM 30.0 °F - 24.1 °F 79% 29.61 in 10.0 mi Calm Calm - N/A   Partly Cloudy
6:53 AM 28.9 °F 25.2 °F 21.9 °F 75% 29.66 in 10.0 mi NNW 3.5 mph - N/A   Mostly Cloudy
7:53 AM 30.0 °F - 21.9 °F 72% 29.68 in 10.0 mi Calm Calm - N/A   Mostly Cloudy
8:53 AM 34.0 °F - 25.0 °F 70% 29.71 in 10.0 mi Calm Calm - N/A   Mostly Cloudy
9:53 AM 43.0 °F 38.8 °F 27.0 °F 53% 29.73 in 10.0 mi SE 6.9 mph - N/A   Mostly Cloudy
10:53 AM 46.0 °F 41.9 °F 28.0 °F 50% 29.74 in 10.0 mi ESE 8.1 mph - N/A   Mostly Cloudy
11:53 AM 48.9 °F - 28.0 °F 44% 29.75 in 10.0 mi SE 5.8 mph - N/A   Scattered Clouds
12:53 PM 51.1 °F - 28.0 °F 41% 29.76 in 10.0 mi Calm Calm - N/A   Scattered Clouds
1:53 PM 55.9 °F - 28.0 °F 34% 29.75 in 10.0 mi SSW 4.6 mph - N/A   Scattered Clouds
2:53 PM 57.9 °F - 27.0 °F 31% 29.76 in 10.0 mi South 9.2 mph - N/A   Scattered Clouds
3:53 PM 59.0 °F - 26.1 °F 28% 29.76 in 10.0 mi Variable 5.8 mph - N/A   Mostly Cloudy
4:53 PM 61.0 °F - 23.0 °F 23% 29.76 in 10.0 mi Variable 4.6 mph - N/A   Mostly Cloudy
5:53 PM 61.0 °F - 21.9 °F 22% 29.76 in 10.0 mi SSW 6.9 mph - N/A   Scattered Clouds
6:53 PM 61.0 °F - 24.1 °F 24% 29.78 in 10.0 mi SSW 10.4 mph 21.9 mph N/A   Overcast
7:53 PM 57.9 °F - 30.0 °F 35% 29.81 in 10.0 mi SSW 13.8 mph 19.6 mph N/A   Overcast
8:53 PM 55.9 °F - 30.9 °F 39% 29.81 in 10.0 mi Variable 6.9 mph 18.4 mph N/A   Overcast
9:53 PM 54.0 °F - 30.9 °F 41% 29.83 in 10.0 mi SSW 11.5 mph 17.3 mph N/A   Mostly Cloudy
10:53 PM 52.0 °F - 32.0 °F 47% 29.85 in 10.0 mi South 5.8 mph - N/A   Scattered Clouds
11:53 PM 50.0 °F - 34.0 °F 54% 29.88 in 10.0 mi SW 9.2 mph 21.9 mph N/A   Mostly Cloudy